Theta_e
318 313 311 313 314 312 315 318 321 319 318 316 310 309 308 303 301 301 302 303 304 304 305 304 305 305 306 307 308 309 307 306 305 302 301 300 299 298 298 298 297 297 297 297
318 314 308 309 311 312 312 314 315 316 316 313 311 306 302 301 301 302 303 303 304 303 303 303 304 305 306 307 307 307 306 304 301 300 299 298 297 296 295 295 295 295 295 294
319 313 309 314 311 310 312 310 311 313 313 311 305 303 302 302 303 303 303 303 302 302 302 302 303 305 306 307 306 305 302 301 300 299 298 296 295 294 294 294 294 294 293 292
313 309 315 310 303 310 309 309 309 308 308 306 305 302 302 303 303 302 303 302 302 302 302 302 302 303 306 307 304 302 301 300 300 299 297 295 294 293 292 292 292 293 292 292
310 312 313 307 299 306 308 309 308 308 307 306 302 302 303 302 301 301 301 302 301 301 301 301 302 303 305 306 302 301 300 299 298 298 296 295 295 293 292 292 292 292 292 291
311 314 314 307 301 301 303 306 302 306 305 302 301 302 302 301 301 301 301 300 301 301 301 301 302 303 304 305 302 299 299 299 299 297 296 295 294 293 292 291 291 291 290 290
309 311 308 300 299 299 302 306 301 301 301 301 303 302 303 302 302 301 301 301 301 301 301 301 302 302 303 302 302 301 300 299 296 296 295 295 293 292 291 290 289 289 289 289
306 309 310 300 298 300 303 302 301 301 302 303 302 302 301 301 301 301 301 301 301 301 301 301 302 301 301 301 300 301 299 297 296 296 295 294 293 292 291 290 290 289 288 288
306 306 301 301 302 301 301 301 301 300 301 301 301 300 300 300 300 301 301 301 300 301 301 301 301 300 300 300 299 298 297 295 294 294 294 293 293 291 290 290 290 290 290 289
300 298 299 301 301 302 301 300 299 299 298 298 298 299 299 299 299 299 300 300 300 300 300 300 301 301 300 298 298 296 296 295 294 294 293 292 292 291 292 290 290 290 290 289
298 298 299 300 301 301 300 298 297 298 298 298 298 298 298 298 298 299 299 299 299 299 300 300 300 301 300 298 298 296 295 294 293 292 292 291 291 290 289 289 290 290 289 289
300 298 298 299 299 299 298 297 297 297 297 297 297 298 298 299 299 299 299 299 299 299 299 299 299 300 299 298 298 297 295 294 293 292 291 291 289 289 289 289 289 288 288 288
297 298 297 297 296 296 296 297 297 297 298 300 300 300 300 300 299 299 299 299 299 298 297 296 297 298 299 297 297 296 296 294 292 291 290 289 289 288 288 286 286 286 286 286
297 297 297 296 297 297 297 298 299 299 299 299 299 298 298 298 297 297 296 296 295 293 293 292 292 293 295 295 295 295 295 293 292 291 290 289 289 289 289 288 287 285 283 284
296 296 297 298 298 298 298 299 299 299 299 298 297 297 297 297 296 295 294 294 294 292 291 291 290 291 291 293 293 293 293 292 291 290 290 289 289 289 288 288 287 286 285 284
297 297 298 298 299 299 299 299 299 298 297 296 296 295 294 294 293 293 293 293 293 295 293 292 291 291 291 291 292 292 291 291 291 289 288 288 289 288 288 288 287 286 286 286
299 299 299 299 300 299 298 297 296 295 294 294 293 292 292 292 292 292 292 291 290 290 290 290 291 291 291 290 291 291 292 290 290 289 288 288 288 287 288 287 287 287 286 285
298 299 299 299 298 297 295 294 294 293 292 292 291 290 289 289 289 289 289 289 289 289 290 291 291 291 291 290 291 292 291 290 289 288 287 287 287 287 287 287 287 287 286 285
297 296 295 294 293 293 293 292 292 291 290 290 290 290 289 289 288 289 288 288 289 289 291 292 291 291 291 291 290 290 289 288 287 287 287 286 286 287 287 287 287 287 286 285
294 294 293 292 291 291 291 290 289 290 289 289 289 288 289 288 288 288 289 290 290 291 291 291 290 290 291 290 289 289 288 288 287 286 286 286 286 286 286 286 287 286 286 285
292 292 291 291 290 290 289 289 288 289 288 288 288 288 288 287 287 288 290 292 292 292 291 291 291 291 290 289 288 288 288 287 287 287 286 286 286 286 286 286 286 285 285 285
291 291 290 290 290 290 288 287 287 286 286 286 286 286 286 287 288 289 289 290 291 291 290 290 290 290 289 289 288 287 287 287 287 287 286 286 286 286 286 285 285 285 284 284
291 290 289 289 288 288 286 286 286 285 286 286 286 287 287 287 287 289 291 291 290 290 289 290 289 289 289 288 288 288 288 288 287 287 286 286 286 286 285 285 284 284 284 284
290 288 287 287 286 287 287 286 285 285 285 286 286 286 286 287 288 289 288 288 287 287 288 288 288 289 289 288 288 288 288 288 287 287 286 286 286 285 285 284 284 284 283 283
287 287 286 287 288 288 286 286 286 286 286 287 287 286 286 286 286 287 286 287 286 287 287 287 287 288 288 288 288 288 288 287 287 286 286 285 285 285 284 284 283 283 282 282
288 288 288 286 287 287 286 286 286 286 286 286 287 286 285 285 286 286 286 286 286 287 287 286 286 287 287 288 288 287 287 287 286 286 285 285 285 284 284 284 283 283 283 283
288 287 287 287 285 285 285 286 286 286 286 286 286 285 285 285 286 286 285 286 286 286 286 286 286 286 286 286 286 286 286 286 285 285 285 285 284 284 283 283 283 283 282 281
Wind_Speed
18 7 8 13 23 24 28 27 19 16 21 13 17 18 11 3 2 3 4 6 7 9 9 14 17 19 19 20 19 20 15 11 8 5 4 3 3 4 5 5 5 7 8 8
20 14 9 13 17 23 26 25 28 25 20 1 10 5 7 3 4 4 5 6 5 8 9 13 16 19 19 20 20 15 9 4 6 5 3 2 2 1 2 3 4 1 2 2
6 11 7 15 22 21 20 23 23 23 19 7 10 8 6 5 4 4 3 3 5 8 10 14 17 18 19 19 16 9 4 6 6 6 5 3 2 1 1 1 2 3 3 2
5 10 9 3 4 22 23 21 22 16 7 6 8 6 6 5 4 2 2 3 5 7 12 16 18 21 18 14 11 5 5 6 7 6 5 5 5 4 3 4 4 5 7 4
7 13 7 11 7 11 18 19 21 18 16 12 7 7 7 5 3 2 2 4 6 9 13 17 19 21 16 12 5 5 6 6 7 7 8 9 9 8 7 7 7 6 6 7
7 7 10 3 13 7 7 12 12 17 12 12 11 8 5 9 2 3 6 7 8 10 13 15 18 18 13 13 6 8 8 7 10 12 12 11 10 11 11 11 10 9 8 7
8 8 4 7 14 12 8 1 6 10 10 9 9 4 3 3 7 9 9 10 10 12 13 13 14 14 13 10 9 11 11 12 15 14 12 11 11 9 10 10 10 10 9 8
5 7 12 16 17 12 8 10 10 7 7 6 4 3 5 7 9 10 10 13 14 14 13 11 9 9 9 9 8 8 11 14 15 14 13 12 12 11 10 10 10 11 11 11
9 5 7 21 8 9 8 10 7 6 4 4 6 8 10 10 10 9 9 11 11 11 10 9 6 6 7 6 5 8 10 11 13 12 12 13 12 11 9 9 8 9 10 10
7 8 10 18 8 11 8 6 5 3 4 7 10 11 12 12 12 11 12 10 10 11 12 14 12 10 9 6 3 7 9 10 12 13 13 12 9 8 8 9 10 11 11 11
3 11 9 12 13 12 8 3 1 4 5 6 8 11 13 12 13 12 12 13 13 13 13 14 13 11 10 7 9 8 11 11 12 12 13 12 9 7 6 7 9 10 12 13
6 14 7 14 12 8 8 7 6 6 7 9 11 12 12 12 12 12 13 13 13 13 13 12 13 12 12 11 12 12 11 12 12 9 9 9 8 6 5 4 7 8 10 15
6 12 8 11 9 9 7 6 5 7 7 8 10 10 11 11 13 14 16 17 15 13 12 12 13 14 14 14 13 14 14 11 11 11 10 8 7 7 7 5 4 7 10 14
11 12 9 9 6 5 3 3 4 5 6 7 9 11 12 10 12 11 10 17 18 12 12 12 12 15 17 16 15 17 14 14 11 12 11 10 9 9 9 11 10 8 9 12
10 7 7 8 5 5 5 4 5 6 7 8 11 10 12 11 12 15 13 13 16 17 18 15 13 18 14 19 22 22 17 15 14 13 11 10 10 11 10 11 11 12 12 11
10 8 8 5 4 5 6 7 6 7 7 8 9 11 15 15 14 16 16 16 14 12 13 16 18 19 14 17 24 23 20 17 18 14 12 11 11 11 12 12 12 13 14 15
11 9 7 7 7 6 4 4 5 6 7 8 8 9 10 13 15 15 15 14 16 18 20 20 20 18 16 15 24 22 20 18 17 17 15 13 11 13 13 13 14 14 13 17
5 5 6 5 4 3 4 5 5 6 7 9 9 8 8 9 9 12 15 15 15 15 17 20 19 18 16 17 25 22 23 21 19 16 16 16 14 14 14 14 14 14 14 16
9 8 6 3 2 3 4 5 6 7 8 8 8 8 10 11 12 15 16 14 14 13 15 12 13 13 13 15 22 22 22 20 18 16 16 17 16 15 15 14 14 15 14 17
7 5 4 3 3 3 3 5 6 7 7 7 8 9 9 12 13 15 15 14 17 15 12 11 10 10 14 15 23 21 20 21 21 19 17 18 17 16 15 15 15 15 16 18
5 4 4 4 4 4 4 5 5 6 8 8 8 9 11 15 15 15 12 7 11 9 11 11 12 9 14 16 23 19 21 21 18 19 20 18 17 16 15 15 15 15 16 17
6 5 4 3 4 2 1 3 5 6 6 8 9 8 10 12 12 13 14 13 12 11 8 9 11 14 14 16 19 19 20 20 18 16 16 16 16 16 15 16 16 15 15 15
6 5 4 2 2 1 2 2 4 5 6 8 8 8 9 11 12 9 6 3 6 7 8 8 9 10 13 17 21 19 19 19 18 16 15 15 15 16 16 16 16 16 15 14
6 4 3 1 1 1 2 4 6 5 6 8 7 7 8 10 11 6 6 9 9 7 6 5 5 8 12 17 19 18 17 17 17 16 15 16 16 16 15 16 15 15 14 14
5 4 3 1 1 1 2 4 5 3 5 6 6 6 7 6 7 10 9 6 4 3 2 1 4 9 13 14 16 16 15 16 17 17 17 17 16 16 17 15 15 16 15 14
6 4 3 1 2 2 1 2 3 4 5 6 6 6 7 7 7 6 5 3 1 1 2 4 6 8 10 12 13 14 15 16 18 17 18 18 17 15 15 15 15 15 14 13
6 5 5 4 2 0 1 2 3 3 4 5 7 7 7 7 6 5 4 1 2 4 5 5 6 7 9 11 12 13 14 16 17 17 18 18 16 16 16 15 15 14 13 13
Wind_Direction
251 242 246 222 215 212 217 224 222 246 237 205 200 198 196 218 258 307 301 305 315 316 322 316 312 314 312 313 311 306 292 267 258 238 258 275 304 320 333 334 340 341 319 306
233 214 248 235 235 216 226 233 245 249 254 267 168 168 201 218 247 252 284 315 325 323 327 330 322 313 315 315 315 305 273 221 195 209 210 212 239 327 340 353 18 58 52 62
225 195 241 263 226 224 220 230 234 236 238 191 188 207 208 233 219 269 293 315 338 335 342 330 330 320 310 318 313 291 214 191 189 193 185 155 103 98 63 151 159 151 156 210
145 152 224 263 335 215 222 220 231 246 226 212 210 196 219 218 235 249 257 303 326 328 328 338 327 323 311 315 315 266 200 206 201 188 180 160 153 144 168 163 166 151 152 162
173 208 284 223 191 183 198 231 230 231 230 211 198 195 223 212 200 220 289 298 304 321 329 332 335 330 318 315 287 229 218 199 201 195 191 179 161 155 151 153 150 153 142 134
179 208 222 346 157 163 171 253 208 215 216 194 179 221 234 141 165 250 263 276 298 313 316 326 339 338 321 310 260 227 219 218 221 204 200 189 169 158 157 162 150 138 129 134
190 222 258 145 151 153 180 134 138 180 191 193 208 252 1 307 283 286 281 283 290 302 310 328 335 335 322 320 243 243 235 216 220 205 199 189 180 165 162 149 142 132 133 136
179 212 237 157 158 179 117 124 126 150 153 184 229 248 262 279 286 294 297 288 286 293 298 317 324 330 325 317 312 254 231 228 216 205 204 198 186 173 162 150 144 141 144 141
191 198 128 168 156 131 144 142 138 152 177 237 259 267 278 278 286 291 295 295 297 289 288 294 291 295 317 321 295 241 238 226 211 201 206 201 189 179 165 161 160 163 165 161
152 183 175 180 148 168 162 143 137 168 255 257 261 270 274 276 279 281 280 283 287 288 290 298 291 275 281 285 249 222 205 216 212 201 201 199 194 191 191 173 175 176 175 173
124 157 146 182 185 174 165 155 194 218 242 261 273 270 276 279 282 282 283 283 282 287 289 291 294 267 260 243 217 205 202 184 195 196 193 191 195 200 206 203 198 187 188 178
189 163 171 179 192 205 200 205 216 241 252 266 271 276 280 279 278 277 275 277 277 279 282 288 290 271 256 236 229 191 216 179 180 194 198 189 185 191 199 227 221 214 208 188
140 145 145 136 156 172 207 231 251 254 261 265 274 279 273 274 278 287 282 272 270 276 281 286 289 281 259 234 220 218 203 206 172 185 192 181 175 174 165 165 171 201 200 184
139 139 152 170 158 171 211 216 167 258 266 264 272 278 279 279 279 278 257 267 273 267 265 274 280 283 264 228 217 213 199 198 179 174 180 178 177 181 179 171 167 166 171 162
158 172 134 132 136 161 174 192 243 253 270 279 284 285 278 280 279 281 284 280 264 265 259 264 264 283 283 245 220 213 191 188 173 175 178 177 171 173 181 182 172 160 145 145
155 156 155 165 170 173 195 218 256 274 281 275 276 271 272 279 283 282 279 277 270 261 272 265 268 280 285 248 223 212 203 199 171 161 167 177 172 179 179 179 176 167 165 165
146 157 163 181 192 197 225 260 262 275 280 276 279 284 282 285 288 281 285 286 276 268 269 260 265 280 275 240 217 201 195 188 177 164 172 173 180 191 186 184 181 177 174 171
158 155 163 174 184 222 245 255 270 274 271 279 287 288 278 273 279 289 286 286 283 275 267 267 268 274 261 239 214 203 189 180 174 170 172 166 189 192 188 187 181 178 167 175
138 137 135 144 196 245 260 263 270 281 281 271 278 279 282 285 286 288 285 284 279 277 279 272 272 262 249 235 212 195 183 173 162 166 178 172 183 189 188 183 185 181 171 177
138 144 155 179 190 230 243 258 265 267 285 291 291 291 292 290 287 286 289 277 269 270 275 280 270 254 236 230 207 190 179 171 166 162 170 181 183 185 185 185 183 183 178 185
175 184 185 185 202 223 244 267 270 284 294 299 295 295 294 293 293 290 288 278 287 272 271 265 243 237 226 219 198 185 174 168 169 167 174 180 180 183 183 185 182 179 179 184
172 172 178 206 217 237 264 323 318 299 298 309 302 291 293 297 299 294 288 270 286 293 274 268 253 235 225 214 190 182 172 171 170 167 176 176 175 178 181 183 180 178 180 181
154 169 178 190 212 285 324 347 336 318 310 309 300 295 299 300 297 297 302 343 309 299 284 270 255 232 216 200 188 183 177 175 171 169 172 176 176 178 179 177 176 171 172 174
150 146 140 153 173 303 343 354 341 324 312 307 294 295 299 306 306 283 304 304 303 289 278 277 227 204 194 188 183 177 173 175 177 176 174 175 172 175 172 167 165 165 168 170
148 151 143 167 192 50 357 351 339 333 332 322 321 313 313 302 285 303 310 306 295 292 301 294 187 186 183 182 184 180 173 175 178 176 174 167 167 165 163 162 163 164 166 166
161 162 147 102 58 32 354 331 328 332 338 338 335 336 327 321 316 316 318 309 295 114 97 116 133 151 163 169 169 168 168 168 168 168 164 162 159 156 156 159 161 164 164 163
146 153 130 120 115 81 332 315 324 336 340 336 327 341 338 337 339 343 348 10 117 120 118 110 118 130 140 149 149 152 153 155 157 153 154 153 154 160 160 160 158 158 160 162